TimeCDT,TemperatureF,Dew PointF,Humidity,Sea Level PressureIn,VisibilityMPH,Wind Direction,Wind SpeedMPH,Gust SpeedMPH,PrecipitationIn,Events,Conditions,WindDirDegrees,DateUTC
12:52 AM,46.0,44.1,93,29.94,10.0,Calm,Calm,-,N/A,,Clear,0,2012-10-03 05:52:00
1:52 AM,45.0,43.0,93,29.94,10.0,Calm,Calm,-,N/A,,Clear,0,2012-10-03 06:52:00
2:52 AM,45.0,43.0,93,29.94,10.0,Calm,Calm,-,N/A,,Clear,0,2012-10-03 07:52:00
3:52 AM,44.1,42.1,93,29.94,10.0,Calm,Calm,-,N/A,,Clear,0,2012-10-03 08:52:00
4:52 AM,45.0,42.1,90,29.95,10.0,Calm,Calm,-,N/A,,Clear,0,2012-10-03 09:52:00
5:52 AM,44.1,41.0,89,29.96,10.0,Calm,Calm,-,N/A,,Clear,0,2012-10-03 10:52:00
6:52 AM,44.1,41.0,89,29.97,10.0,Calm,Calm,-,N/A,,Clear,0,2012-10-03 11:52:00
7:52 AM,44.1,41.0,89,29.98,10.0,Calm,Calm,-,N/A,,Clear,0,2012-10-03 12:52:00
8:52 AM,55.9,51.1,84,29.99,10.0,Calm,Calm,-,N/A,,Clear,0,2012-10-03 13:52:00
9:52 AM,64.0,51.1,63,30.00,10.0,SSW,5.8,-,N/A,,Clear,210,2012-10-03 14:52:00
10:52 AM,70.0,50.0,49,30.00,10.0,South,5.8,-,N/A,,Clear,180,2012-10-03 15:52:00
11:52 AM,75.0,46.9,37,29.99,10.0,SSW,5.8,-,N/A,,Clear,200,2012-10-03 16:52:00
12:52 PM,77.0,44.1,31,29.97,10.0,SSW,11.5,-,N/A,,Clear,210,2012-10-03 17:52:00
1:52 PM,78.1,46.9,33,29.94,10.0,SSW,10.4,19.6,N/A,,Scattered Clouds,200,2012-10-03 18:52:00
2:52 PM,79.0,46.0,31,29.92,10.0,South,10.4,18.4,N/A,,Clear,190,2012-10-03 19:52:00
3:52 PM,80.1,46.9,31,29.91,10.0,SSW,13.8,20.7,N/A,,Clear,200,2012-10-03 20:52:00
4:52 PM,79.0,46.0,31,29.91,10.0,South,9.2,-,N/A,,Clear,180,2012-10-03 21:52:00
5:52 PM,77.0,48.0,36,29.91,10.0,South,8.1,17.3,N/A,,Clear,180,2012-10-03 22:52:00
6:52 PM,73.0,48.9,42,29.92,10.0,SSE,5.8,-,N/A,,Clear,160,2012-10-03 23:52:00
7:52 PM,68.0,50.0,52,29.94,10.0,SSE,4.6,-,N/A,,Clear,150,2012-10-04 00:52:00
8:52 PM,66.0,50.0,56,29.96,10.0,SSE,4.6,-,N/A,,Clear,150,2012-10-04 01:52:00
10:52 PM,64.9,48.9,56,29.97,10.0,SSE,4.6,-,N/A,,Clear,160,2012-10-04 03:52:00
11:52 PM,64.0,51.1,63,29.97,10.0,South,6.9,-,N/A,,Clear,170,2012-10-04 04:52:00